Location: Kitt Peak
(31.9639°N, 111.5992°W)
Time: 12:25:24
(UTC-07:00)

Envisat - Visible Passes

Search period start: 21 September 2017 00:00
Search period end: 01 October 2017 00:00
Orbit: 764 x 766 km, 98.2° (Epoch: 21 September)

Date Brightness Start Highest point End Pass type
(mag) Time Alt. Az. Time Alt. Az. Time Alt. Az.
21 Sep 3.5 19:48:56 35° E 19:49:41 37° ENE 19:54:19 10° N visible
21 Sep 5.3 21:29:09 19° W 21:29:09 19° W 21:32:22 10° NW visible
22 Sep 4.5 19:11:57 14° E 19:13:19 16° ENE 19:16:18 10° NNE visible
22 Sep 3.8 20:52:10 47° W 20:52:10 47° W 20:56:46 10° NNW visible
23 Sep 2.8 20:15:12 69° ENE 20:15:12 69° ENE 20:20:14 10° N visible
24 Sep 3.8 19:38:12 28° E 19:38:40 29° ENE 19:42:59 10° NNE visible
24 Sep 5.0 21:18:25 24° W 21:18:25 24° W 21:21:44 10° NW visible
25 Sep 4.8 19:01:14 11° ENE 19:02:21 12° ENE 19:04:18 10° NE visible
25 Sep 3.5 20:41:26 56° WNW 20:41:26 56° WNW 20:45:48 10° NNW visible
26 Sep 3.1 20:04:28 52° ENE 20:04:28 52° ENE 20:09:03 10° N visible
26 Sep 5.8 21:44:41 12° WNW 21:44:41 12° WNW 21:45:45 10° WNW visible
27 Sep 4.1 19:27:29 22° ENE 19:27:40 22° ENE 19:31:32 10° NNE visible
27 Sep 4.8 21:07:42 29° WNW 21:07:42 29° WNW 21:10:58 10° NW visible
28 Sep 3.4 20:30:44 56° NNW 20:30:44 56° NNW 20:34:45 10° NNW visible
29 Sep 3.5 19:53:45 39° NE 19:53:45 39° NE 19:57:48 10° N visible
29 Sep 5.7 21:33:58 15° WNW 21:33:58 15° WNW 21:35:31 10° NW visible
30 Sep 4.4 19:16:47 18° ENE 19:16:47 18° ENE 19:19:57 10° NNE visible
30 Sep 4.6 20:57:00 32° NW 20:57:00 32° NW 21:00:07 10° NNW visible
